Meteo pe oră la Bolshoe Chernevo

Astăzi, 6 Mai, Joi

Timp Temperatura Precipitaţii Vânt Presiune Umiditate
00:00 +8°C° 0 mm 5 m/s 739 mmHg 83%
01:00 +8°C° 0 mm 5 m/s 739 mmHg 84%
02:00 +7°C° 0 mm 4 m/s 738 mmHg 85%
03:00 +7°C° 0 mm 4 m/s 738 mmHg 84%
04:00 +7°C° 0 mm 5 m/s 738 mmHg 83%
05:00 +8°C° 0 mm 5 m/s 738 mmHg 83%
06:00 +8°C° 0 mm 5 m/s 738 mmHg 83%
07:00 +9°C° 0 mm 6 m/s 738 mmHg 79%
08:00 +10°C° 0 mm 6 m/s 738 mmHg 75%
09:00 +11°C° 0 mm 7 m/s 738 mmHg 70%
10:00 +12°C° 0.1 mm 8 m/s 738 mmHg 70%
11:00 +13°C° 0.1 mm 8 m/s 737 mmHg 69%
12:00 +13°C° 0.1 mm 9 m/s 737 mmHg 68%
13:00 +13°C° 0.2 mm 9 m/s 737 mmHg 67%
14:00 +13°C° 0.2 mm 9 m/s 737 mmHg 66%
15:00 +13°C° 0.2 mm 10 m/s 736 mmHg 65%
16:00 +12°C° 0.1 mm 9 m/s 737 mmHg 70%
17:00 +10°C° 0.1 mm 9 m/s 737 mmHg 74%
18:00 +9°C° 0.1 mm 8 m/s 737 mmHg 78%
19:00 +9°C° 0.3 mm 7 m/s 737 mmHg 81%
20:00 +8°C° 0.3 mm 6 m/s 738 mmHg 85%
21:00 +8°C° 0.3 mm 5 m/s 738 mmHg 89%
22:00 +7°C° 0 mm 4 m/s 738 mmHg 90%
23:00 +6°C° 0 mm 4 m/s 738 mmHg 91%

Mâine, 7 Mai, Vineri

Timp Temperatura Precipitaţii Vânt Presiune Umiditate
00:00 +7°C° 0 mm 3 m/s 739 mmHg 92%
01:00 +7°C° 0 mm 3 m/s 739 mmHg 92%
02:00 +5°C° 0 mm 3 m/s 739 mmHg 93%
03:00 +5°C° 0 mm 3 m/s 739 mmHg 93%
04:00 +5°C° 0 mm 3 m/s 740 mmHg 92%
05:00 +5°C° 0 mm 3 m/s 740 mmHg 91%
06:00 +5°C° 0 mm 3 m/s 740 mmHg 89%
07:00 +6°C° 0 mm 4 m/s 740 mmHg 80%
08:00 +7°C° 0 mm 4 m/s 741 mmHg 71%
09:00 +8°C° 0 mm 5 m/s 741 mmHg 62%
10:00 +9°C° 0 mm 5 m/s 741 mmHg 56%
11:00 +10°C° 0 mm 5 m/s 742 mmHg 51%
12:00 +12°C° 0 mm 5 m/s 742 mmHg 46%
13:00 +13°C° 0 mm 5 m/s 742 mmHg 44%
14:00 +13°C° 0 mm 5 m/s 742 mmHg 43%
15:00 +14°C° 0 mm 4 m/s 742 mmHg 41%
16:00 +13°C° 0 mm 4 m/s 742 mmHg 46%
17:00 +13°C° 0 mm 4 m/s 742 mmHg 50%
18:00 +13°C° 0 mm 4 m/s 742 mmHg 55%
19:00 +11°C° 0 mm 4 m/s 742 mmHg 59%
20:00 +10°C° 0 mm 4 m/s 742 mmHg 62%
21:00 +8°C° 0 mm 4 m/s 742 mmHg 66%
22:00 +7°C° 0 mm 4 m/s 742 mmHg 66%
23:00 +7°C° 0 mm 4 m/s 742 mmHg 66%

Poimâine, 8 Mai, Sâmbătă

Timp Temperatura Precipitaţii Vânt Presiune Umiditate
00:00 +6°C° 0 mm 5 m/s 741 mmHg 67%
01:00 +7°C° 0 mm 5 m/s 741 mmHg 65%
02:00 +7°C° 0 mm 6 m/s 740 mmHg 63%
03:00 +7°C° 0 mm 6 m/s 740 mmHg 62%
04:00 +6°C° 0 mm 7 m/s 739 mmHg 65%
05:00 +6°C° 0 mm 7 m/s 739 mmHg 68%
06:00 +6°C° 0 mm 7 m/s 738 mmHg 71%
07:00 +6°C° 1.4 mm 8 m/s 738 mmHg 78%
08:00 +6°C° 1.4 mm 8 m/s 737 mmHg 85%
09:00 +6°C° 1.4 mm 9 m/s 737 mmHg 91%
10:00 +6°C° 0.9 mm 8 m/s 736 mmHg 92%
11:00 +6°C° 0.9 mm 8 m/s 736 mmHg 93%
12:00 +6°C° 0.9 mm 7 m/s 736 mmHg 94%
13:00 +8°C° 1.1 mm 7 m/s 735 mmHg 95%
14:00 +8°C° 1.1 mm 6 m/s 735 mmHg 95%
15:00 +8°C° 1.1 mm 6 m/s 734 mmHg 96%
16:00 +9°C° 0.8 mm 6 m/s 735 mmHg 95%
17:00 +9°C° 0.8 mm 5 m/s 735 mmHg 93%
18:00 +9°C° 0.8 mm 5 m/s 735 mmHg 92%
19:00 +8°C° 0 mm 5 m/s 735 mmHg 89%
20:00 +7°C° 0 mm 6 m/s 735 mmHg 87%
21:00 +5°C° 0 mm 6 m/s 736 mmHg 85%
22:00 +4°C° 0 mm 6 m/s 736 mmHg 86%
23:00 +3°C° 0 mm 7 m/s 737 mmHg 87%

9 Mai, Duminică

Timp Temperatura Precipitaţii Vânt Presiune Umiditate
00:00 +2°C° 0 mm 7 m/s 737 mmHg 88%
01:00 +2°C° 0 mm 6 m/s 738 mmHg 90%
02:00 +2°C° 0 mm 6 m/s 738 mmHg 92%
03:00 +2°C° 0 mm 6 m/s 739 mmHg 94%
04:00 +2°C° 0 mm 6 m/s 739 mmHg 92%
05:00 +3°C° 0 mm 5 m/s 740 mmHg 91%
06:00 +3°C° 0 mm 5 m/s 741 mmHg 90%
07:00 +3°C° 0 mm 5 m/s 741 mmHg 86%
08:00 +5°C° 0 mm 5 m/s 742 mmHg 81%
09:00 +4°C° 0 mm 6 m/s 743 mmHg 77%
10:00 +6°C° 0 mm 5 m/s 743 mmHg 73%
11:00 +6°C° 0 mm 5 m/s 744 mmHg 70%
12:00 +7°C° 0 mm 5 m/s 744 mmHg 66%
13:00 +7°C° 0 mm 5 m/s 745 mmHg 63%
14:00 +8°C° 0 mm 5 m/s 746 mmHg 60%
15:00 +9°C° 0 mm 5 m/s 746 mmHg 57%
16:00 +9°C° 0 mm 5 m/s 747 mmHg 60%
17:00 +8°C° 0 mm 4 m/s 747 mmHg 63%
18:00 +8°C° 0 mm 4 m/s 747 mmHg 66%
19:00 +8°C° 0 mm 3 m/s 748 mmHg 70%
20:00 +7°C° 0 mm 2 m/s 749 mmHg 73%
21:00 +6°C° 0 mm 1 m/s 749 mmHg 77%
22:00 +6°C° 0 mm 1 m/s 750 mmHg 77%
23:00 +5°C° 0 mm 1 m/s 750 mmHg 78%

10 Mai, Luni

Timp Temperatura Precipitaţii Vânt Presiune Umiditate
00:00 +4°C° 0 mm 2 m/s 751 mmHg 78%
01:00 +4°C° 0 mm 2 m/s 751 mmHg 78%
02:00 +3°C° 0 mm 2 m/s 752 mmHg 78%
03:00 +3°C° 0 mm 2 m/s 752 mmHg 78%
04:00 +3°C° 0 mm 2 m/s 753 mmHg 78%
05:00 +4°C° 0 mm 2 m/s 753 mmHg 78%
06:00 +4°C° 0 mm 2 m/s 754 mmHg 78%
07:00 +6°C° 0 mm 2 m/s 754 mmHg 72%
08:00 +8°C° 0 mm 2 m/s 754 mmHg 66%
09:00 +10°C° 0 mm 2 m/s 754 mmHg 59%
10:00 +11°C° 0 mm 3 m/s 754 mmHg 55%
11:00 +12°C° 0 mm 3 m/s 755 mmHg 51%
12:00 +13°C° 0 mm 3 m/s 755 mmHg 47%
13:00 +13°C° 0 mm 3 m/s 754 mmHg 46%
14:00 +14°C° 0 mm 3 m/s 754 mmHg 46%
15:00 +14°C° 0 mm 3 m/s 754 mmHg 46%
16:00 +14°C° 0 mm 3 m/s 754 mmHg 50%
17:00 +14°C° 0 mm 3 m/s 754 mmHg 54%
18:00 +14°C° 0 mm 2 m/s 754 mmHg 58%
19:00 +13°C° 0 mm 2 m/s 754 mmHg 62%
20:00 +10°C° 0 mm 2 m/s 754 mmHg 65%
21:00 +8°C° 0 mm 2 m/s 754 mmHg 69%
22:00 +8°C° 0 mm 2 m/s 754 mmHg 71%
23:00 +7°C° 0 mm 2 m/s 754 mmHg 73%

11 Mai, Marţi

Timp Temperatura Precipitaţii Vânt Presiune Umiditate
00:00 +6°C° 0 mm 2 m/s 754 mmHg 75%
01:00 +6°C° 0 mm 2 m/s 754 mmHg 76%
02:00 +6°C° 0 mm 2 m/s 754 mmHg 76%
03:00 +5°C° 0 mm 2 m/s 754 mmHg 77%
04:00 +5°C° 0 mm 2 m/s 755 mmHg 78%
05:00 +6°C° 0 mm 2 m/s 755 mmHg 78%
06:00 +6°C° 0 mm 2 m/s 755 mmHg 79%
07:00 +8°C° 0 mm 3 m/s 755 mmHg 73%
08:00 +10°C° 0 mm 3 m/s 755 mmHg 67%
09:00 +12°C° 0 mm 4 m/s 755 mmHg 61%
10:00 +13°C° 0 mm 4 m/s 755 mmHg 57%
11:00 +14°C° 0 mm 5 m/s 755 mmHg 54%
12:00 +15°C° 0 mm 5 m/s 754 mmHg 50%
13:00 +16°C° 0 mm 5 m/s 754 mmHg 50%
14:00 +17°C° 0 mm 5 m/s 754 mmHg 49%
15:00 +18°C° 0 mm 4 m/s 754 mmHg 49%
16:00 +18°C° 0 mm 4 m/s 753 mmHg 54%
17:00 +18°C° 0 mm 3 m/s 753 mmHg 58%
18:00 +18°C° 0 mm 3 m/s 753 mmHg 63%
19:00 +16°C° 0 mm 3 m/s 753 mmHg 68%
20:00 +13°C° 0 mm 3 m/s 753 mmHg 73%
21:00 +11°C° 0 mm 3 m/s 753 mmHg 78%
22:00 +11°C° 0 mm 3 m/s 753 mmHg 79%
23:00 +10°C° 0 mm 3 m/s 753 mmHg 80%
Arată mai mult

Formular de consimțământ

Meteoprog și furnizorii noștri de servicii pot stoca și accesa date personale, precum cookies, identificatori de dispozitiv sau alte tehnologii similare pe dispozitivul dumneavoastră și procesa astfel de date pentru a personaliza conținutul și reclamele, dar și pentru a oferi caracteristici de social media și pentru a analiza traficul.

  • Stocarea și/sau accesarea informațiilor pe dispozitivul dumneavoastră

    Cookies, identificatori de dispozitiv sau alte informații pot fi stocate sau accesate pe dispozitiv în scopurile indicate mai sus.

  • Reclame și conținut personalizat, evaluarea reclamelor și a conținutului, informații despre audiențe și dezvoltarea produselor

    Reclamele și conținutul pot fi personalizate pe baza unui profil. Pot fi adăugate date suplimentare pentru a personaliza mai bine reclamele și conținutul. Performanța reclamelor și conținutului poate fi măsurată. Pot fi obținute informații despre utilizatorii care au văzut reclamele și conținutul. Aceste date pot fi utilizate pentru a dezvolta sau îmbunătăți experiența utilizatorilor, sistemele și software-ul.

Dând clic pe ‘Sunt de acord’, permiteți utilizarea cookie-urilor menționate, a identificatorilor de dispozitiv, balizelor web sau altor tehnologii similare. Setările pot fi modificate din browser-ul dispozitivului dumneavoastră.

În anumite scopuri, interesele legitime pot prima asupra consimțământului. Puteți citi mai multe informații în acest sens în Politica privind Confidențialitatea Datelor și Cookie.